Tracking 31013 objects as of 10-Jul-2025
HD Live streaming from Space Station
objects crossing your sky now

PEGASUS DEB

Track PEGASUS DEB now!
10-day predictions


NORAD ID: 39929
Int'l Code: 1994-029AGC
Perigee: 561.4 km
Apogee: 911.1 km
Inclination: 81.9 °
Period: 99.4 minutes
Semi major axis: 7107 km
RCS: 0.0115 m2 (small)
Launch date: May 19, 1994
Source: United States (US)
Launch site: AIR FORCE WESTERN TEST RANGE (AFWTR)

Note: This is SATELLITE DEBRIS
Your satellite tracking list
Your tracking list is empty




NASA's NSSDC Master Catalog

Two Line Element Set (TLE):
1 39929U 94029AGC 25189.65409354  .00002332  00000-0  41370-3 0  9995
2 39929  81.9434 166.1601 0245971 135.3336 226.7969 14.48944062581126
Source of the keplerian elements: AFSPC